Weather in Nurma

Russia / Saint-Petersburg and Leningrad Oblast     59°33′38″N   31°00′42″E
temp.,
°C
wind,
m/s
gust,
m/s
humid.,
%
clouds,
%
prec.,
mm/h
press.,
hPa
HPBL,
m
19 september, sun
sun1900:00+4ene3983100 0.0 1027371
03:00+2ene3985100 0.0 1027292
06:00+2ene31085100 0.0 1027325
09:00+4e41174100 0.0 1027495
12:00+8e5754100 0.0 1027975
15:00+10e5748100 0.0 10261271
18:00+8ene4859100 0.0 10261015
21:00+6ene41170100 0.0 1026634
20 september, mon
mon2000:00+5ene41274100 0.0 1026647
03:00+4ene41276100 0.0 1026602
06:00+4ene51277100 0.0 1026582
09:00+4ene51270100 0.0 1027667
12:00+7ene5956100 0.0 1026941
15:00+9ene5951100 0.0 10261191
18:00+7ene51059100 0.0 10251017
21:00+5ene41065100 0.0 1025822
21 september, tue
tue2100:00+4ene3107384 0.0 1025552
03:00+2ne3982100 0.0 1024354
06:00+2ne398480 0.0 1023308
09:00+4ene377497 0.0 1022407
12:00+8ene365791 0.0 1021829
15:00+7ene4671100 0.0 1021988
18:00+6ene3789100 0.3 1021803
21:00+5ene3793100 0.6 1021851
22 september, wed
wed2200:00+5ne3695100 0.2 1021674
03:00+5ne2697100 0.2 1021490
06:00+5nne2694100 0.0 1021366
09:00+6ne2790100 0.0 1021410
12:00+8nne257994 0.0 1021472
15:00+11nne356391 0.0 10201073
18:00+9nne2472100 0.0 1019202
21:00+8nne1379100 0.0 101985
23 september, thu
thu2300:00+7ene1279100 0.0 101768
03:00+7ese1179100 0.0 101538
06:00+6se1481100 0.0 1014183
09:00+6sse1592100 0.1 1013311
12:00+7sse3688100 0.0 1012742
15:00+8sse4778100 0.1 1010824
18:00+7sse4885100 0.0 10091052
21:00+7sse4108798 0.1 1007874